Simultaneous Nadir Overpasses (SNOs) Predictions

Prediction of SNOs between NOAA-19 and TERRA Satellite Orbit:

Table of predicted SNOs for the next 14.0 days since TLE Epoch: 3/18/2012
Index Date (NOAA-19) Time (NOAA-19) NOAA-19 Lat,Lon Date (TERRA) Time (TERRA) TERRA Lat,Lon Distance(km) Time Diff (sec)
1 03/19/2012 15:41:38 -69.08, 123.67 03/19/2012 15:42:50 -69.08, 123.77 3.99 72
2 03/19/2012 16:32:36 68.87, -68.80 03/19/2012 16:32:19 68.86, -68.85 2.32 17
3 03/21/2012 20:26:23 -68.99, 52.60 03/21/2012 20:27:07 -69.01, 52.62 2.18 44
4 03/21/2012 21:17:23 68.86,-139.98 03/21/2012 21:16:35 68.85,-139.94 2.46 48
5 03/24/2012 01:11:08 -68.92, -18.49 03/24/2012 01:11:24 -68.93, -18.55 2.61 16
6 03/24/2012 02:02:06 68.65, 149.11 03/24/2012 02:00:53 68.71, 148.82 12.99 73
7 03/26/2012 05:04:57 69.16, 102.73 03/26/2012 05:06:08 69.11, 102.99 12.09 71
8 03/26/2012 05:55:54 -68.91, -89.66 03/26/2012 05:55:40 -68.88, -89.66 2.53 14
9 03/28/2012 09:49:40 68.98, 31.81 03/28/2012 09:50:25 68.99, 31.78 1.83 45
10 03/28/2012 10:40:39 -68.85,-160.78 03/28/2012 10:39:56 -68.82,-160.80 3.21 43
11 03/30/2012 14:34:26 68.96, -39.36 03/30/2012 14:34:40 68.97, -39.31 2.27 14
12 03/30/2012 15:25:24 -68.81, 128.09 03/30/2012 15:24:11 -68.80, 128.12 1.00 73




NCC Satellite Simultaneous Nadir Overpasses (SNOs) Prediction Service
